Location: Gad�tanya
(48.0500°N, 20.8500°E)
Time: 10:38:00
(UTC+00:00)

Cosmos 1346 Rocket - Pass Details

Date: 05 July 2020
Orbit: 533 x 545 km, 81.2° (Epoch: 14 August)

Event Time Altitude Azimuth Distance (km) Brightness Sun altitude
Exits shadow 22:28:47 45° 135° (SE) 737 3.1 -19.2°
Maximum altitude 22:29:29 52° 97° (E) 670 3.1 -19.2°
Drops below altitude 10° 22:33:20 10° 21° (NNE) 1,798 6.4 -19.3°
Sets 22:35:32 0° 16° (NNE) 2,695 7.7 -19.3°
